User: anonymous   Login
Location: Unspecified
(0.0000°N, 0.0000°E)
Time: 00:55:08
(UTC+00:00)
Language:

Transit VE-3 - Orbit

View from above orbital plane
View from above orbital plane
View from above satellite
View from above satellite

Ground track
Ground track

The orbit data is extracted from the following two-line orbital elements,

1 00705U 63049C   17324.52716281  .00000007  00000-0 -29222-5 0  9993
2 00705  89.9124  99.2926 0032307 260.3915 143.1792 13.47312652651075
Epoch (UTC): 20 November 2017 12:39:06
Eccentricity: 0.0032307
inclination: 89.9124°
perigee height: 1058 km
apogee height: 1106 km
right ascension of ascending node: 99.2926°
argument of perigee: 260.3915°
revolutions per day: 13.47312652
mean anomaly at epoch: 143.1792°
orbit number at epoch: 65107

The dashed part of the orbit path shows where the satellite is in the earth's shadow,  

DLR